Weather in Rakhinka

Russia / Volgograd Oblast     49°00′52″N   44°55′21″E
temp.,
°C
wind,
m/s
gust,
m/s
humid.,
%
clouds,
%
prec.,
mm/h
press.,
hPa
HPBL,
m
26 july, mon
mon2600:00+21nne594987 0.0 1020141
03:00+21ne595168 0.0 1021202
06:00+22ne584971 0.0 1022207
09:00+24ene5743100 0.0 1022411
12:00+26ene4535100 0.0 1022805
15:00+28n34311 0.0 10201197
18:00+27n67355 0.0 1020556
21:00+23ne584174 0.0 1021105
27 july, tue
tue2700:00+21ne51045100 0.0 1021166
03:00+19nne475214 0.0 1021110
06:00+20ne47500 0.0 1022146
09:00+25nne56346 0.0 1022856
12:00+27nne663069 0.0 10201363
15:00+27n663098 0.0 10191502
18:00+27n553347 0.0 10191096
21:00+23ne334047 0.0 101924
28 july, wed
wed2800:00+22n33445 0.0 101915
03:00+20nnw33525 0.0 101816
06:00+21n35581 0.0 101995
09:00+25n34440 0.0 1018484
12:00+28nw43361 0.0 10171568
15:00+28nnw32360 0.0 1016772
18:00+28n11345 0.0 1015677
21:00+24nne11415 0.0 101611
29 july, thu
thu2900:00+23se22410 0.0 101511
03:00+22s22455 0.0 101411
06:00+23wsw33455 0.0 101549
09:00+27sw563641 0.0 1014639
12:00+30wsw56307 0.0 10131831
15:00+30wsw673154 0.0 10111892
18:00+28wnw584526 0.1 1011525
21:00+26w475095 0.1 1011122
30 july, fri
fri3000:00+23wnw446312 0.3 101136
03:00+22w457017 1.5 101159
06:00+23w23685 0.0 101284
09:00+27nw12521 0.0 1012377
12:00+29wnw134437 0.0 10121352
15:00+30nnw12428 0.0 10111327
18:00+28wsw344969 0.5 1011131
21:00+27w235233 0.6 101126